SAZ52 LGIO-LRTM

Flight info

Callsign SAZ52
Flight time 1h 20m
Altitude 40000
Route KAS UN731 BITLA DCT LETNI/N0457F410 DCT TIMUR/N0455F400
Aircraft CL60/M-SBDE1E2E3FGHIJ1J4J5J7M3RWXYZ/LB1V1D1

Departure

Time 2026-05-08 14:22
Airport Ioannina King Pyrrhus National Airport (LGIO)

Arrival

Time 2026-05-08 15:42
Airport Târgu Mureş Transilvania International Airport (LRTM)
Time Latitude Longitude Altitude Speed Heading
2026-05-08 14:08 39.69501 20.82005 1574 ft 0 kts 321°
2026-05-08 14:18 39.69504 20.82002 1574 ft 2 kts 321°
2026-05-08 14:18 39.69535 20.82006 1572 ft 8 kts 53°
2026-05-08 14:18 39.69575 20.82074 1569 ft 6 kts 37°
2026-05-08 14:18 39.69627 20.82035 1568 ft 11 kts 321°
2026-05-08 14:19 39.69701 20.81963 1567 ft 15 kts 324°
2026-05-08 14:19 39.69797 20.81870 1565 ft 18 kts 338°
2026-05-08 14:19 39.69910 20.81964 1560 ft 21 kts 21°
2026-05-08 14:19 39.70039 20.81880 1558 ft 23 kts 321°
2026-05-08 14:20 39.70178 20.81742 1556 ft 26 kts 324°
2026-05-08 14:20 39.70328 20.81593 1554 ft 27 kts 320°
2026-05-08 14:20 39.70454 20.81455 1554 ft 21 kts 320°
2026-05-08 14:20 39.70538 20.81328 1553 ft 12 kts 314°
2026-05-08 14:21 39.70533 20.81374 1553 ft 8 kts 142°
2026-05-08 14:21 39.70531 20.81375 1553 ft 0 kts 141°
2026-05-08 14:21 39.70496 20.81412 1554 ft 37 kts 141°
2026-05-08 14:21 39.70011 20.81908 1559 ft 133 kts 140°
2026-05-08 14:22 39.69175 20.82803 1991 ft 169 kts 140°
2026-05-08 14:22 39.68257 20.83797 2776 ft 178 kts 139°
2026-05-08 14:22 39.67374 20.84897 3614 ft 182 kts 136°
2026-05-08 14:22 39.66509 20.86085 4456 ft 185 kts 136°
2026-05-08 14:23 39.65621 20.87286 5280 ft 189 kts 138°
2026-05-08 14:23 39.64855 20.88717 5917 ft 208 kts 116°
2026-05-08 14:23 39.64936 20.90696 6112 ft 248 kts 59°
2026-05-08 14:23 39.65584 20.92620 6882 ft 225 kts 89°
2026-05-08 14:24 39.65233 20.94473 7616 ft 211 kts 133°
2026-05-08 14:24 39.64066 20.95475 8151 ft 199 kts 179°
2026-05-08 14:24 39.62696 20.95473 8700 ft 202 kts 191°
2026-05-08 14:24 39.61221 20.95396 9222 ft 221 kts 186°
2026-05-08 14:25 39.59649 20.95694 9775 ft 240 kts 174°
2026-05-08 14:25 39.58076 20.96595 10302 ft 254 kts 155°
2026-05-08 14:25 39.56708 20.98090 10802 ft 260 kts 146°
2026-05-08 14:25 39.55413 20.99662 11360 ft 257 kts 146°
2026-05-08 14:26 39.54106 21.01237 11993 ft 258 kts 147°
2026-05-08 14:26 39.52689 21.02625 12613 ft 251 kts 167°
2026-05-08 14:26 39.51054 21.02834 13282 ft 233 kts 204°
2026-05-08 14:26 39.49749 21.01685 14003 ft 235 kts 238°
2026-05-08 14:27 39.49103 20.99706 14669 ft 248 kts 256°
2026-05-08 14:27 39.48913 20.97495 15311 ft 256 kts 269°
2026-05-08 14:27 39.49229 20.95208 15939 ft 260 kts 285°
2026-05-08 14:27 39.50062 20.93139 16567 ft 267 kts 301°
2026-05-08 14:28 39.51409 20.91437 17208 ft 279 kts 319°
2026-05-08 14:28 39.53200 20.90310 17841 ft 293 kts 331°
2026-05-08 14:28 39.55119 20.89383 18469 ft 295 kts 331°
2026-05-08 14:28 39.57048 20.88445 19104 ft 296 kts 332°
2026-05-08 14:29 39.58986 20.87500 19733 ft 298 kts 331°
2026-05-08 14:29 39.60905 20.86564 20356 ft 299 kts 332°
2026-05-08 14:29 39.62870 20.85604 20987 ft 301 kts 332°
2026-05-08 14:29 39.64831 20.84644 21618 ft 304 kts 332°
2026-05-08 14:30 39.66790 20.83684 22244 ft 306 kts 332°
2026-05-08 14:30 39.68792 20.82704 22871 ft 309 kts 332°
2026-05-08 14:30 39.70818 20.81718 23511 ft 313 kts 334°
2026-05-08 14:30 39.72998 20.81313 24137 ft 334 kts 358°
2026-05-08 14:31 39.75301 20.82251 24599 ft 364 kts 22°
2026-05-08 14:31 39.77533 20.83995 24969 ft 381 kts 26°
2026-05-08 14:31 39.79815 20.85800 25337 ft 393 kts 26°
2026-05-08 14:32 39.84646 20.89549 26096 ft 415 kts 26°
2026-05-08 14:32 39.87157 20.91498 26511 ft 423 kts 27°
2026-05-08 14:32 39.89696 20.93482 27053 ft 426 kts 28°
2026-05-08 14:32 39.92275 20.95398 27520 ft 429 kts 22°
2026-05-08 14:33 39.94965 20.97091 28005 ft 432 kts 20°
2026-05-08 14:33 39.97716 20.98739 28446 ft 437 kts 20°
2026-05-08 14:33 40.00499 21.00412 28930 ft 440 kts 20°
2026-05-08 14:33 40.03277 21.02085 29402 ft 443 kts 20°
2026-05-08 14:34 40.06083 21.03777 29888 ft 445 kts 20°
2026-05-08 14:34 40.08927 21.05493 30289 ft 449 kts 20°
2026-05-08 14:34 40.11782 21.07219 30651 ft 452 kts 20°
2026-05-08 14:34 40.14640 21.08948 31043 ft 455 kts 20°
2026-05-08 14:35 40.17558 21.10715 31446 ft 457 kts 21°
2026-05-08 14:35 40.20446 21.12467 31812 ft 460 kts 21°
2026-05-08 14:35 40.23386 21.14251 32103 ft 464 kts 21°
2026-05-08 14:35 40.26301 21.16022 32395 ft 467 kts 21°
2026-05-08 14:36 40.29284 21.17837 32665 ft 471 kts 22°
2026-05-08 14:36 40.32241 21.19638 32929 ft 474 kts 22°
2026-05-08 14:36 40.35262 21.21480 33206 ft 476 kts 22°
2026-05-08 14:36 40.38251 21.23304 33458 ft 479 kts 23°
2026-05-08 14:37 40.41316 21.25175 33693 ft 482 kts 23°
2026-05-08 14:37 40.44407 21.26822 33979 ft 482 kts 17°
2026-05-08 14:37 40.47617 21.27953 34314 ft 477 kts
2026-05-08 14:37 40.50879 21.28653 34761 ft 470 kts
2026-05-08 14:38 40.54129 21.29276 35216 ft 465 kts
2026-05-08 14:38 40.57291 21.29888 35619 ft 462 kts
2026-05-08 14:38 40.60488 21.30507 35991 ft 459 kts
2026-05-08 14:38 40.63629 21.31116 36366 ft 458 kts
2026-05-08 14:39 40.66813 21.31734 36694 ft 458 kts
2026-05-08 14:39 40.69968 21.32347 36911 ft 459 kts
2026-05-08 14:39 40.73104 21.32958 37141 ft 459 kts
2026-05-08 14:39 40.76267 21.33575 37437 ft 457 kts
2026-05-08 14:40 40.79386 21.34184 37708 ft 455 kts
2026-05-08 14:40 40.82530 21.34888 37963 ft 456 kts
2026-05-08 14:40 40.85570 21.35997 38172 ft 459 kts 15°
2026-05-08 14:40 40.88559 21.37614 38375 ft 463 kts 22°
2026-05-08 14:41 40.91384 21.39719 38532 ft 468 kts 30°
2026-05-08 14:41 40.94013 21.42230 38672 ft 471 kts 33°
2026-05-08 14:41 40.96640 21.44862 38813 ft 472 kts 33°
2026-05-08 14:41 40.99277 21.47501 38998 ft 472 kts 33°
2026-05-08 14:42 41.01870 21.50098 39228 ft 471 kts 33°
2026-05-08 14:42 41.04503 21.52738 39350 ft 472 kts 33°
2026-05-08 14:42 41.07107 21.55353 39599 ft 470 kts 33°
2026-05-08 14:42 41.09719 21.57979 39817 ft 469 kts 33°
2026-05-08 14:43 41.12312 21.60587 40011 ft 468 kts 33°
2026-05-08 14:43 41.14920 21.63214 40035 ft 471 kts 33°
2026-05-08 14:43 41.20190 21.68528 40027 ft 477 kts 34°
2026-05-08 14:44 41.25486 21.73881 40036 ft 481 kts 34°
2026-05-08 14:44 41.30823 21.79287 40033 ft 485 kts 34°
2026-05-08 14:45 41.36190 21.84736 40040 ft 489 kts 34°
2026-05-08 14:45 41.41611 21.90252 40038 ft 493 kts 35°
2026-05-08 14:46 41.47066 21.95814 40036 ft 497 kts 35°
2026-05-08 14:46 41.52580 22.01449 40030 ft 500 kts 34°
2026-05-08 14:47 41.58093 22.07096 40021 ft 499 kts 35°
2026-05-08 14:47 41.63555 22.12712 40022 ft 498 kts 35°
2026-05-08 14:48 41.69035 22.18351 40026 ft 497 kts 35°
2026-05-08 14:48 41.74514 22.23998 40004 ft 498 kts 35°
2026-05-08 14:49 41.80004 22.29670 40018 ft 498 kts 35°
2026-05-08 14:49 41.85476 22.35335 40010 ft 498 kts 35°
2026-05-08 14:50 41.90939 22.41005 40025 ft 497 kts 35°
2026-05-08 14:50 41.96427 22.46713 40017 ft 497 kts 35°
2026-05-08 14:51 42.01882 22.52400 39997 ft 497 kts 35°
2026-05-08 14:51 42.07324 22.58086 40016 ft 497 kts 35°
2026-05-08 14:52 42.15640 22.66503 40017 ft 496 kts 34°
2026-05-08 14:53 42.21172 22.72008 40013 ft 496 kts 34°
2026-05-08 14:53 42.26743 22.77566 40030 ft 497 kts 34°
2026-05-08 14:54 42.32275 22.83100 40026 ft 496 kts 34°
2026-05-08 14:54 42.37817 22.88656 40017 ft 497 kts 34°
2026-05-08 14:55 42.43325 22.94192 40035 ft 495 kts 34°
2026-05-08 14:55 42.48854 22.99762 40023 ft 495 kts 34°
2026-05-08 14:56 42.54374 23.05335 40028 ft 495 kts 34°
2026-05-08 14:56 42.59898 23.10926 40046 ft 495 kts 34°
2026-05-08 14:57 42.65400 23.16506 40050 ft 495 kts 34°
2026-05-08 14:57 42.70899 23.22096 40025 ft 495 kts 34°
2026-05-08 14:58 42.76400 23.27702 40037 ft 494 kts 34°
2026-05-08 14:58 42.81912 23.33332 40032 ft 493 kts 34°
2026-05-08 14:59 42.87353 23.38903 40024 ft 493 kts 34°
2026-05-08 14:59 42.95603 23.47371 40033 ft 493 kts 35°
2026-05-08 15:00 43.01065 23.52995 40035 ft 494 kts 35°
2026-05-08 15:00 43.06553 23.58657 40015 ft 495 kts 34°
2026-05-08 15:01 43.12065 23.64359 40015 ft 493 kts 35°
2026-05-08 15:01 43.17530 23.70025 39989 ft 494 kts 36°
2026-05-08 15:02 43.23003 23.75711 39994 ft 494 kts 36°
2026-05-08 15:02 43.28478 23.81414 40004 ft 494 kts 36°
2026-05-08 15:03 43.33924 23.87098 39985 ft 495 kts 36°
2026-05-08 15:03 43.39297 23.92719 39996 ft 496 kts 36°
2026-05-08 15:04 43.44804 23.98494 39987 ft 497 kts 36°
2026-05-08 15:04 43.50268 24.04238 39984 ft 497 kts 36°
2026-05-08 15:05 43.55730 24.09992 39967 ft 497 kts 36°
2026-05-08 15:05 43.61214 24.15784 39978 ft 496 kts 36°
2026-05-08 15:06 43.66790 24.21297 39978 ft 494 kts 28°
2026-05-08 15:06 43.72995 24.25106 39967 ft 488 kts 14°
2026-05-08 15:07 43.79581 24.27354 39968 ft 486 kts
2026-05-08 15:07 43.86181 24.29479 39961 ft 486 kts
2026-05-08 15:08 43.91656 24.31246 39945 ft 485 kts
2026-05-08 15:08 43.99313 24.33723 39932 ft 484 kts
2026-05-08 15:09 44.05830 24.35837 39930 ft 484 kts
2026-05-08 15:09 44.12413 24.37977 39943 ft 484 kts
2026-05-08 15:10 44.18989 24.40120 39943 ft 484 kts
2026-05-08 15:10 44.25524 24.42254 39941 ft 484 kts
2026-05-08 15:11 44.32049 24.44391 39957 ft 483 kts
2026-05-08 15:11 44.38619 24.46546 39952 ft 483 kts
2026-05-08 15:12 44.45142 24.48692 39961 ft 483 kts
2026-05-08 15:12 44.51645 24.50835 39966 ft 483 kts
2026-05-08 15:13 44.58195 24.52999 39977 ft 482 kts
2026-05-08 15:13 44.64715 24.55157 39972 ft 483 kts
2026-05-08 15:14 44.71213 24.57314 39988 ft 483 kts
2026-05-08 15:14 44.77728 24.59481 39977 ft 482 kts
2026-05-08 15:15 44.84245 24.61654 39979 ft 481 kts
2026-05-08 15:15 44.90780 24.63838 39987 ft 480 kts
2026-05-08 15:16 44.97231 24.66002 39979 ft 473 kts
2026-05-08 15:16 45.03577 24.68133 39984 ft 469 kts
2026-05-08 15:17 45.09919 24.70266 39998 ft 469 kts
2026-05-08 15:17 45.16242 24.72398 40009 ft 470 kts
2026-05-08 15:18 45.22600 24.74547 40017 ft 470 kts
2026-05-08 15:18 45.28962 24.76702 40036 ft 471 kts
2026-05-08 15:19 45.35331 24.78865 40044 ft 470 kts
2026-05-08 15:19 45.41704 24.81034 40047 ft 469 kts
2026-05-08 15:20 45.48076 24.83206 39628 ft 478 kts
2026-05-08 15:20 45.51311 24.84309 38877 ft 480 kts
2026-05-08 15:20 45.54507 24.85405 38107 ft 478 kts
2026-05-08 15:21 45.57750 24.86518 37365 ft 473 kts
2026-05-08 15:21 45.60968 24.87449 36626 ft 468 kts
2026-05-08 15:21 45.64149 24.87695 35975 ft 463 kts 354°
2026-05-08 15:21 45.67349 24.87206 35190 ft 458 kts 344°
2026-05-08 15:22 45.70367 24.86011 34245 ft 452 kts 335°
2026-05-08 15:22 45.73186 24.84114 33186 ft 446 kts 325°
2026-05-08 15:22 45.75691 24.81593 32198 ft 438 kts 316°
2026-05-08 15:22 45.77816 24.78524 31196 ft 428 kts 304°
2026-05-08 15:23 45.79155 24.74905 30285 ft 411 kts 283°
2026-05-08 15:23 45.79395 24.70929 29667 ft 396 kts 265°
2026-05-08 15:23 45.79185 24.66979 29161 ft 402 kts 264°
2026-05-08 15:23 45.78980 24.62981 28603 ft 403 kts 265°
2026-05-08 15:24 45.78801 24.59041 28078 ft 402 kts 265°
2026-05-08 15:24 45.78642 24.55057 27553 ft 399 kts 266°
2026-05-08 15:24 45.78511 24.51125 27014 ft 393 kts 266°
2026-05-08 15:24 45.78405 24.47226 26501 ft 389 kts 267°
2026-05-08 15:25 45.78326 24.43364 25979 ft 386 kts 268°
2026-05-08 15:25 45.78273 24.39583 25478 ft 384 kts 268°
2026-05-08 15:25 45.78245 24.35767 24966 ft 382 kts 269°
2026-05-08 15:25 45.78251 24.31949 24456 ft 380 kts 270°
2026-05-08 15:26 45.78608 24.28230 23850 ft 381 kts 283°
2026-05-08 15:26 45.79616 24.24746 23129 ft 375 kts 299°
2026-05-08 15:26 45.81180 24.21855 22536 ft 366 kts 313°
2026-05-08 15:26 45.83175 24.19640 21851 ft 363 kts 327°
2026-05-08 15:27 45.85492 24.18173 20743 ft 370 kts 343°
2026-05-08 15:27 45.87972 24.17706 20415 ft 354 kts 358°
2026-05-08 15:27 45.90395 24.17984 19891 ft 347 kts
2026-05-08 15:27 45.92757 24.18537 19487 ft 341 kts
2026-05-08 15:28 45.95128 24.19085 19062 ft 344 kts
2026-05-08 15:28 45.97472 24.19626 18574 ft 344 kts
2026-05-08 15:28 45.99847 24.20175 18121 ft 340 kts
2026-05-08 15:28 46.02148 24.20708 17671 ft 338 kts
2026-05-08 15:29 46.04478 24.21248 17214 ft 335 kts
2026-05-08 15:29 46.06748 24.21775 16782 ft 332 kts
2026-05-08 15:29 46.09017 24.22301 16337 ft 330 kts
2026-05-08 15:29 46.11290 24.22829 15900 ft 327 kts
2026-05-08 15:30 46.13543 24.23353 15425 ft 326 kts
2026-05-08 15:30 46.15755 24.23868 15025 ft 322 kts
2026-05-08 15:30 46.17960 24.24381 14593 ft 320 kts
2026-05-08 15:30 46.20136 24.24888 14176 ft 318 kts
2026-05-08 15:31 46.22310 24.25395 13752 ft 315 kts
2026-05-08 15:31 46.24466 24.25898 13339 ft 312 kts
2026-05-08 15:31 46.26590 24.26394 12938 ft 309 kts
2026-05-08 15:31 46.28707 24.26889 12518 ft 308 kts
2026-05-08 15:32 46.30825 24.27385 12109 ft 304 kts
2026-05-08 15:32 46.32889 24.27868 11717 ft 302 kts
2026-05-08 15:32 46.34948 24.28350 11311 ft 300 kts
2026-05-08 15:32 46.36994 24.28830 10921 ft 296 kts
2026-05-08 15:33 46.39010 24.29304 10487 ft 288 kts
2026-05-08 15:33 46.40953 24.29614 10147 ft 276 kts 355°
2026-05-08 15:33 46.42798 24.29046 9672 ft 269 kts 334°
2026-05-08 15:33 46.44331 24.27576 9249 ft 261 kts 313°
2026-05-08 15:34 46.45393 24.25477 8725 ft 258 kts 294°
2026-05-08 15:34 46.45925 24.23044 8362 ft 249 kts 282°
2026-05-08 15:34 46.46298 24.20693 8093 ft 231 kts 283°
2026-05-08 15:34 46.46654 24.18492 7767 ft 218 kts 283°
2026-05-08 15:35 46.46987 24.16430 7534 ft 207 kts 283°
2026-05-08 15:35 46.47311 24.14415 7213 ft 201 kts 283°
2026-05-08 15:35 46.47621 24.12487 6974 ft 193 kts 283°
2026-05-08 15:35 46.47836 24.10575 6704 ft 195 kts 267°
2026-05-08 15:36 46.47243 24.08849 6375 ft 197 kts 220°
2026-05-08 15:36 46.45947 24.08313 6028 ft 197 kts 172°
2026-05-08 15:36 46.44669 24.08916 5721 ft 196 kts 153°
2026-05-08 15:36 46.43476 24.09919 5415 ft 199 kts 147°
2026-05-08 15:37 46.42319 24.11078 4960 ft 202 kts 133°
2026-05-08 15:37 46.41625 24.12766 4509 ft 196 kts 103°
2026-05-08 15:37 46.41557 24.14688 4118 ft 190 kts 79°
2026-05-08 15:37 46.41858 24.16541 3753 ft 189 kts 71°
2026-05-08 15:38 46.42245 24.18330 3513 ft 184 kts 70°
2026-05-08 15:38 46.42624 24.20124 3492 ft 180 kts 71°
2026-05-08 15:38 46.42960 24.21809 3423 ft 173 kts 72°
2026-05-08 15:38 46.43291 24.23487 3187 ft 171 kts 72°
2026-05-08 15:39 46.43606 24.25099 2998 ft 162 kts 72°
2026-05-08 15:39 46.43907 24.26640 2774 ft 146 kts 72°
2026-05-08 15:39 46.44162 24.27959 2632 ft 133 kts 71°
2026-05-08 15:39 46.44414 24.29233 2417 ft 130 kts 71°
2026-05-08 15:40 46.44662 24.30483 2265 ft 129 kts 71°
2026-05-08 15:40 46.44909 24.31728 2111 ft 128 kts 71°
2026-05-08 15:40 46.45156 24.32973 1931 ft 128 kts 71°
2026-05-08 15:40 46.45403 24.34207 1772 ft 127 kts 71°
2026-05-08 15:41 46.45645 24.35452 1618 ft 127 kts 72°
2026-05-08 15:41 46.45874 24.36683 1461 ft 128 kts 71°
2026-05-08 15:41 46.46125 24.37953 1307 ft 130 kts 71°
2026-05-08 15:41 46.46372 24.39194 1148 ft 124 kts 72°
2026-05-08 15:42 46.46605 24.40411 975 ft 128 kts 72°
2026-05-08 15:42 46.46834 24.41562 956 ft 103 kts 73°
2026-05-08 15:42 46.46975 24.42289 961 ft 36 kts 72°
2026-05-08 15:42 46.46979 24.42491 962 ft 20 kts 138°
2026-05-08 15:43 46.46897 24.42535 962 ft 0 kts 163°
2026-05-08 15:43 46.46896 24.42535 962 ft 1 kts 163°
2026-05-08 15:43 46.46874 24.42545 962 ft 5 kts 163°
2026-05-08 15:44 46.46827 24.42563 962 ft 3 kts 166°
2026-05-08 15:44 46.46815 24.42533 962 ft 6 kts 288°
2026-05-08 15:44 46.46825 24.42516 962 ft 2 kts 325°
2026-05-08 15:44 46.46827 24.42514 962 ft 0 kts 319°